Regional Weather Roundup
Issued by NWS

Home | Current Version | Previous Version | Text Only | Print | Product List | Glossary On
Versions: 1 2 3 4 5 6 7 8 9 10 11 12 13 14 15 16 17 18 19 20 21 22 23 24 25 26 27 28 29 30 31 32 33 34 35 36 37 38 39 40 41 42 43 44 45 46
000
ASUS46 KPQR 021310
RWROR

OREGON REGIONAL WEATHER ROUNDUP
NATIONAL WEATHER SERVICE PORTLAND OR
600 AM PDT THU OCT 02 2014

NOTE: "FAIR" INDICATES FEW OR NO CLOUDS BELOW 12,000 FEET WITH
NO SIGNIFICANT WEATHER AND/OR OBSTRUCTIONS TO VISIBILITY.

ORZ001>013-021400-
NORTHWEST OREGON


CITY           SKY/WX    TMP DP  RH WIND       PRES   REMARKS
ASTORIA        CLEAR     47  45  93 SE3       30.23R
NEWPORT        CLEAR     50  48  93 E8        30.23R
PORTLAND       CLEAR     49  47  93 CALM      30.23S
VANCOUVER WA   CLEAR     45  43  93 CALM      30.23R
SCAPPOOSE      CLEAR     45  43  93 NW3       30.23R
HILLSBORO      CLEAR     43  43 100 CALM      30.23R
AURORA         CLEAR     46  44  93 CALM      30.23S
MCMINNVILLE    CLEAR     43  42  97 W3        30.23S FOG
SALEM          CLEAR     44  42  93 S3        30.21S
CORVALLIS      CLEAR     43  39  87 CALM      30.23S
EUGENE         PTCLDY    43  40  89 CALM      30.22S
$$

ORZ021-028-021400-
SOUTHWEST OREGON


CITY           SKY/WX    TMP DP  RH WIND       PRES   REMARKS
NORTH BEND     CLEAR     46  46 100 S5        30.17S
BROOKINGS      SUNNY     60  44  55 CALM      30.05S
ROSEBURG       CLEAR     46  42  86 CALM      30.21R
SEXTON SUMMIT  CLEAR     52  40  63 E6        30.20R
MEDFORD        CLEAR     46  43  89 CALM      30.19R
$$

ORZ009-041-021400-
COLUMBIA GORGE


CITY           SKY/WX    TMP DP  RH WIND       PRES   REMARKS
TROUTDALE      CLEAR     46  43  89 CALM      30.22S
THE DALLES     CLEAR     56  46  69 CALM      30.15S
$$

ORZ029>031-042>050-061>064-021400-
EASTERN OREGON


CITY           SKY/WX    TMP DP  RH WIND       PRES   REMARKS
REDMOND        CLEAR     34  24  67 E3        30.19S
BEND           SUNNY     41  36  81 SW7       30.20F
KLAMATH FALLS  PTCLDY    32  28  85 NE5       30.25R WCI  27
LAKEVIEW       PTCLDY    25  18  74 N7        30.27R WCI  17
HERMISTON      CLOUDY    51  40  65 S5        30.17R
PENDLETON      MOCLDY    44  36  73 SE5       30.18R
JOHN DAY       PTSUNNY   42  31  65 CALM      30.20S
MEACHAM        PTCLDY    29  27  92 CALM      30.19R
LA GRANDE      CLOUDY    37  27  65 CALM      30.18R
BAKER CITY     CLOUDY    33  31  92 W6        30.19R WCI  28
BURNS          PTCLDY    22  19  89 W3        30.23S
ROME             N/A     40  33  76 S9        30.22F WCI  34
ONTARIO        CLEAR     39  35  86 S3        30.19R
$$


USA.gov is the U.S. government's official web portal to all federal, state and local government web resources and services.